San Diego, CA

5:42 PM PDT on June 19, 2018 (GMT -0700)
San Diego International-Lindbergh

Weather History for KSAN - October, 2017

Change the Weather History Date:

Thursday, October 12, 2017

  Actual Average Record
Temperature  
Mean Temperature 70 °F 67 °F  
Max Temperature 74 °F 73 °F 94 °F (1939)
Min Temperature 66 °F 61 °F 47 °F (1886)
Degree Days  
Heating Degree Days 0 0  
Month to date heating degree days 0 0  
Since 1 July heating degree days 0 2  
Cooling Degree Days 5 3  
Month to date cooling degree days 60 39  
Year to date cooling degree days 1004 675  
Growing Degree Days 20 (Base 50)    
Moisture  
Dew Point 58 °F    
Average Humidity 65    
Maximum Humidity 73    
Minimum Humidity 57    
Precipitation  
Precipitation 0.00 in 0.01 in 0.45 in (1941)
Month to date precipitation 0.00 0.15  
Year to date precipitation 7.83 7.38  
Sea Level Pressure  
Sea Level Pressure 29.93 in    
Wind  
Wind Speed 6 mph (NW)    
Max Wind Speed 14 mph    
Max Gust Speed 17 mph    
Visibility 10 miles    
Events      
T = Trace of Precipitation, MM = Missing Value Source: NWS Daily Summary

Daily Weather History Graph

Daily Weather History Graph

Search for Another Location

Airport or City:

Astronomy

Oct. 12, 2017 Rise Set
Actual Time 6:50 AM PDT 6:18 PM PDT
Civil Twilight 6:26 AM PDT 6:43 PM PDT
Nautical Twilight 5:57 AM PDT 7:12 PM PDT
Astronomical Twilight 5:28 AM PDT 7:40 PM PDT
Moon No Moon Rise 1:54 PM PDT (10/12)
Length of Visible Light 12h 17m
Length of Day
11h 28m
Waning Gibbous, 47% of the Moon is Illuminated
Oct 12
Waning Gibbous
Oct 19
New
Oct 27
First Quarter
Nov 3
Full
Nov 10
Last Quarter

Hourly Weather History & Observations

Time (PDT) Temp. Dew Point Humidity Pressure Visibility Wind Dir Wind Speed Gust Speed Precip Events Conditions
12:51 AM 66.0 °F 57.9 °F 75% 29.92 in 10.0 mi Calm Calm - N/A   Overcast
1:51 AM 66.9 °F 57.9 °F 73% 29.92 in 10.0 mi Calm Calm - N/A   Overcast
2:51 AM 66.9 °F 57.0 °F 70% 29.92 in 10.0 mi North 4.6 mph - N/A   Overcast
3:51 AM 66.9 °F 57.0 °F 70% 29.91 in 10.0 mi Calm Calm - N/A   Mostly Cloudy
4:51 AM 66.0 °F 57.0 °F 73% 29.91 in 10.0 mi NNW 3.5 mph - N/A   Mostly Cloudy
5:51 AM 66.9 °F 55.9 °F 68% 29.92 in 10.0 mi North 3.5 mph - N/A   Mostly Cloudy
6:51 AM 66.9 °F 55.9 °F 68% 29.93 in 10.0 mi Variable 4.6 mph - N/A   Overcast
7:51 AM 66.9 °F 55.9 °F 68% 29.95 in 10.0 mi North 4.6 mph - N/A   Overcast
8:51 AM 66.9 °F 55.0 °F 66% 29.96 in 10.0 mi NNW 5.8 mph - N/A   Mostly Cloudy
9:05 AM 66.9 °F 55.0 °F 66% 29.96 in 10.0 mi Calm Calm - N/A   Scattered Clouds
9:51 AM 68.0 °F 55.9 °F 65% 29.96 in 10.0 mi Variable 3.5 mph - N/A   Partly Cloudy
10:51 AM 70.0 °F 55.9 °F 61% 29.96 in 10.0 mi SW 11.5 mph - N/A   Partly Cloudy
11:51 AM 72.0 °F 55.9 °F 57% 29.96 in 10.0 mi WNW 10.4 mph - N/A   Partly Cloudy
12:51 PM 72.0 °F 57.0 °F 59% 29.94 in 10.0 mi West 8.1 mph - N/A   Partly Cloudy
1:51 PM 73.0 °F 57.0 °F 57% 29.93 in 10.0 mi WNW 9.2 mph - N/A   Partly Cloudy
2:51 PM 72.0 °F 57.9 °F 61% 29.92 in 10.0 mi NW 11.5 mph - N/A   Partly Cloudy
3:51 PM 72.0 °F 57.9 °F 61% 29.91 in 10.0 mi WNW 10.4 mph - N/A   Partly Cloudy
4:51 PM 71.1 °F 57.9 °F 63% 29.90 in 10.0 mi WNW 9.2 mph - N/A   Clear
5:51 PM 69.1 °F 57.9 °F 68% 29.91 in 10.0 mi NW 8.1 mph - N/A   Clear
6:51 PM 68.0 °F 57.9 °F 70% 29.92 in 10.0 mi NW 8.1 mph - N/A   Partly Cloudy
7:51 PM 68.0 °F 59.0 °F 73% 29.94 in 10.0 mi NNW 8.1 mph - N/A   Scattered Clouds
8:51 PM 66.9 °F 60.1 °F 79% 29.94 in 10.0 mi NNW 6.9 mph - N/A   Scattered Clouds
9:51 PM 66.9 °F 60.1 °F 79% 29.95 in 10.0 mi North 4.6 mph - N/A   Scattered Clouds
10:15 PM 66.9 °F 61.0 °F 81% 29.95 in 10.0 mi Calm Calm - N/A   Mostly Cloudy
10:51 PM 66.9 °F 60.1 °F 79% 29.96 in 10.0 mi North 3.5 mph - N/A   Mostly Cloudy
11:51 PM 66.0 °F 60.1 °F 81% 29.96 in 10.0 mi Calm Calm - N/A   Mostly Cloudy